Kenora Airport
CYQK : now visible

Airfield :











YOU CAN JOIN US ON...

 
LOGIN :

Register | Disclaimer

   EN    FR    IT 

 









Legend :    VFR   Marginal VFR   IFR   Intensive IFR   Very Intensive IFR
Visi :
Ceiling :
>= 8 km
>= 3000ft
5 to 8 km
1000 to 3000 ft
1500m to 5 km
500 to 1000 ft
800 to 1500m
200 to 500 ft
< 800m
< 200 ft
Symbols :   Thunderstorms  Fog  Heavy snow  Heavy precipitations  Wind > 20 kt






- Airport Elevation : 1332 ft
- IATA code : YQK


CYQK - Kenora

CURRENT METAR :
  • 260500Z 13008KT 20SM SCT240 02/M01 A3013 RMK CI3 SLP220

EXPIRED METARs :
  • 260400Z 14009KT 20SM SKC 02/M01 A3014 RMK SLP224
  • 260300Z 14009KT 20SM SKC 03/M01 A3015 RMK SLP229

TAF TAF CYQK
Valid from the 26 at 02:00 until the 26 at 14:00 UTC


260138Z 2602/2614 12008KT P6SM SCT240
FM261300 14012KT P6SM SCT020 OVC130 RMK NXT FCST BY 260800Z
CZWG FIR / North America



MET'MAP, your aeronautical weather chart ! - Copyright ORBIFLY December 2007 - Disclaimer

ORBIFLY MET'MAP TEAM :

Programming & Development : Alexandra Zaïnal
Concept & original design : Baudouin d'Aumeries
Assistance for programming : Marc-Olivier Méhu
Technical & hardware support : Manuel Goepfert

Contact : metmap@orbifly.com




SOURCES & CREDITS :

   NOAA       Earth
Advisory